STARLINK-3117 (49435 NORAD) Tracking and Keplerian Element Data

This shows tracking and keplerian element data for the satellite.

Feedback or suggestion? Click here.




ElementValue
Catalog49435
NameSTARLINK-3117
Epoch Orbit371
Epoch Day339.91667824
Epoch Year2021
RAAN22.2152
Inclination53.2182
Eccentricity0.0001583
Argument of Perigee31.6173
Mean Anonmoly47.6548
Mean Motion15.73223026
Decay Rate0.00052192
L11 49435U 21104AD 21339.91667824 .00052192 00000+0 37361-3 0 9995
L22 49435 53.2182 22.2152 0001583 31.6173 47.6548 15.73223026 3716

Live tracking and technical data element details for STARLINK-3117 (NORAD 49435). STARLINK-3117 can be tracked NOW for your location showing map with azimuth and elevation plus other details from your city location.

Track the satellite on the map from your city or location and see movement details for azimuth, elevation, latitude, longitude, range, height, and movement on the map or in text.







IsCatalogInMostPopularTable: catalog: 49435, numindb: 1
Update: records affected: 1



GetName: 49435 STARLINK-3117

Hit Count: updated at: Wed, 08 Dec 2021 16:13:29 GMT